• In Netherlands
  • List of Countries
  • For 7 days
  • Water Temperature
  • Satellite Maps
  • Weather Map
  • Weather Widgets
  • user-avatar
    Login

    Hourly Weather Zaranj

    Today, 25 March, Saturday

    Time Temperature Precipitation Wind Pressure Humidity
    00:00 +26°C° 0 mm 2 mps 716 mmHg 36%
    01:00 +25°C° 0 mm 2 mps 716 mmHg 38%
    02:00 +25°C° 0 mm 2 mps 716 mmHg 40%
    03:00 +24°C° 0 mm 2 mps 716 mmHg 42%
    04:00 +23°C° 0 mm 2 mps 716 mmHg 44%
    05:00 +22°C° 0 mm 3 mps 716 mmHg 45%
    06:00 +21°C° 0 mm 4 mps 716 mmHg 45%
    07:00 +20°C° 0 mm 5 mps 717 mmHg 46%
    08:00 +21°C° 0 mm 5 mps 717 mmHg 43%
    09:00 +22°C° 0 mm 5 mps 717 mmHg 40%
    10:00 +23°C° 0 mm 5 mps 718 mmHg 36%
    11:00 +26°C° 0 mm 4 mps 718 mmHg 34%
    12:00 +27°C° 0 mm 3 mps 717 mmHg 32%
    13:00 +28°C° 0 mm 3 mps 717 mmHg 30%
    14:00 +28°C° 0 mm 2 mps 717 mmHg 30%
    15:00 +29°C° 0 mm 2 mps 716 mmHg 29%
    16:00 +29°C° 0 mm 1 mps 716 mmHg 28%
    17:00 +29°C° 0 mm 1 mps 716 mmHg 29%
    18:00 +29°C° 0 mm 1 mps 716 mmHg 30%
    19:00 +28°C° 0 mm 1 mps 717 mmHg 31%
    20:00 +28°C° 0.3 mm 1 mps 717 mmHg 33%
    21:00 +27°C° 0.3 mm 1 mps 717 mmHg 36%
    22:00 +27°C° 0.3 mm 1 mps 717 mmHg 38%
    23:00 +26°C° 1.1 mm 1 mps 717 mmHg 44%

    Tomorrow, 26 March, Sunday

    Time Temperature Precipitation Wind Pressure Humidity
    00:00 +25°C° 1.1 mm 2 mps 717 mmHg 49%
    01:00 +24°C° 1.1 mm 2 mps 717 mmHg 54%
    02:00 +22°C° 0.9 mm 3 mps 717 mmHg 57%
    03:00 +22°C° 0.9 mm 5 mps 717 mmHg 60%
    04:00 +21°C° 0.9 mm 6 mps 717 mmHg 62%
    05:00 +21°C° 0 mm 5 mps 718 mmHg 62%
    06:00 +21°C° 0 mm 4 mps 718 mmHg 62%
    07:00 +21°C° 0 mm 4 mps 718 mmHg 61%
    08:00 +21°C° 0.1 mm 3 mps 719 mmHg 59%
    09:00 +22°C° 0.1 mm 3 mps 719 mmHg 57%
    10:00 +24°C° 0.1 mm 2 mps 720 mmHg 55%
    11:00 +24°C° 0.9 mm 3 mps 719 mmHg 54%
    12:00 +25°C° 0.9 mm 3 mps 719 mmHg 54%
    13:00 +26°C° 0.9 mm 3 mps 719 mmHg 53%
    14:00 +26°C° 0.2 mm 3 mps 719 mmHg 53%
    15:00 +26°C° 0.2 mm 3 mps 718 mmHg 52%
    16:00 +27°C° 0.2 mm 3 mps 718 mmHg 52%
    17:00 +26°C° 0.3 mm 3 mps 718 mmHg 53%
    18:00 +26°C° 0.3 mm 3 mps 718 mmHg 55%
    19:00 +26°C° 0.3 mm 3 mps 718 mmHg 57%
    20:00 +25°C° 0.6 mm 3 mps 718 mmHg 59%
    21:00 +24°C° 0.6 mm 3 mps 719 mmHg 62%
    22:00 +24°C° 0.6 mm 3 mps 719 mmHg 64%
    23:00 +24°C° 0.7 mm 3 mps 719 mmHg 66%

    Day after tomorrow, 27 March, Monday

    Time Temperature Precipitation Wind Pressure Humidity
    00:00 +22°C° 0.7 mm 3 mps 719 mmHg 68%
    01:00 +22°C° 0.7 mm 3 mps 718 mmHg 69%
    02:00 +22°C° 0.3 mm 3 mps 718 mmHg 69%
    03:00 +22°C° 0.3 mm 3 mps 718 mmHg 69%
    04:00 +22°C° 0.3 mm 3 mps 718 mmHg 69%
    05:00 +22°C° 0.2 mm 3 mps 718 mmHg 68%
    06:00 +22°C° 0.2 mm 3 mps 718 mmHg 67%
    07:00 +22°C° 0.2 mm 3 mps 719 mmHg 66%
    08:00 +24°C° 0 mm 3 mps 719 mmHg 60%
    09:00 +26°C° 0 mm 3 mps 719 mmHg 55%
    10:00 +27°C° 0 mm 2 mps 719 mmHg 49%
    11:00 +28°C° 0 mm 2 mps 719 mmHg 45%
    12:00 +29°C° 0 mm 2 mps 718 mmHg 42%
    13:00 +30°C° 0 mm 2 mps 718 mmHg 38%
    14:00 +31°C° 0 mm 2 mps 717 mmHg 36%
    15:00 +31°C° 0 mm 2 mps 717 mmHg 34%
    16:00 +31°C° 0 mm 2 mps 717 mmHg 33%
    17:00 +31°C° 0.1 mm 2 mps 717 mmHg 36%
    18:00 +30°C° 0.1 mm 2 mps 717 mmHg 38%
    19:00 +29°C° 0.1 mm 1 mps 717 mmHg 41%
    20:00 +29°C° 0.1 mm 1 mps 718 mmHg 42%
    21:00 +29°C° 0.1 mm 1 mps 718 mmHg 43%
    22:00 +28°C° 0.1 mm 1 mps 718 mmHg 44%
    23:00 +28°C° 0.1 mm 1 mps 718 mmHg 45%

    28 March, Tuesday

    Time Temperature Precipitation Wind Pressure Humidity
    00:00 +27°C° 0.1 mm 2 mps 717 mmHg 46%
    01:00 +27°C° 0.1 mm 2 mps 717 mmHg 47%
    02:00 +26°C° 0.1 mm 3 mps 717 mmHg 49%
    03:00 +26°C° 0.1 mm 3 mps 717 mmHg 50%
    04:00 +25°C° 0.1 mm 3 mps 716 mmHg 52%
    05:00 +25°C° 0.2 mm 3 mps 717 mmHg 53%
    06:00 +25°C° 0.2 mm 3 mps 717 mmHg 54%
    07:00 +25°C° 0.2 mm 3 mps 718 mmHg 55%
    08:00 +26°C° 0 mm 3 mps 718 mmHg 51%
    09:00 +27°C° 0 mm 3 mps 718 mmHg 47%
    10:00 +28°C° 0 mm 3 mps 719 mmHg 43%
    11:00 +29°C° 0 mm 2 mps 718 mmHg 40%
    12:00 +30°C° 0 mm 2 mps 718 mmHg 37%
    13:00 +31°C° 0 mm 2 mps 718 mmHg 34%
    14:00 +31°C° 0 mm 2 mps 717 mmHg 33%
    15:00 +31°C° 0 mm 2 mps 717 mmHg 31%
    16:00 +32°C° 0 mm 2 mps 716 mmHg 30%
    17:00 +31°C° 0 mm 2 mps 716 mmHg 32%
    18:00 +30°C° 0 mm 2 mps 717 mmHg 34%
    19:00 +30°C° 0 mm 2 mps 717 mmHg 36%
    20:00 +29°C° 0 mm 2 mps 717 mmHg 38%
    21:00 +29°C° 0 mm 2 mps 717 mmHg 39%
    22:00 +28°C° 0 mm 1 mps 717 mmHg 40%
    23:00 +28°C° 0 mm 1 mps 717 mmHg 42%

    29 March, Wednesday

    Time Temperature Precipitation Wind Pressure Humidity
    00:00 +27°C° 0 mm 1 mps 717 mmHg 43%
    01:00 +27°C° 0 mm 2 mps 717 mmHg 44%
    02:00 +26°C° 0 mm 2 mps 717 mmHg 45%
    03:00 +26°C° 0 mm 2 mps 716 mmHg 46%
    04:00 +26°C° 0 mm 2 mps 716 mmHg 46%
    05:00 +26°C° 0 mm 2 mps 716 mmHg 46%
    06:00 +26°C° 0 mm 2 mps 717 mmHg 45%
    07:00 +26°C° 0 mm 2 mps 717 mmHg 45%
    08:00 +27°C° 0 mm 2 mps 717 mmHg 41%
    09:00 +28°C° 0 mm 2 mps 718 mmHg 37%
    10:00 +30°C° 0 mm 2 mps 718 mmHg 33%
    11:00 +31°C° 0 mm 2 mps 717 mmHg 31%
    12:00 +31°C° 0 mm 1 mps 717 mmHg 29%
    13:00 +32°C° 0 mm 1 mps 716 mmHg 26%
    14:00 +34°C° 0 mm 2 mps 716 mmHg 24%
    15:00 +34°C° 0 mm 2 mps 716 mmHg 23%
    16:00 +34°C° 0 mm 2 mps 715 mmHg 21%
    17:00 +34°C° 0 mm 2 mps 715 mmHg 23%
    18:00 +32°C° 0 mm 1 mps 716 mmHg 24%
    19:00 +31°C° 0 mm 1 mps 716 mmHg 26%
    20:00 +30°C° 0 mm 1 mps 716 mmHg 28%
    21:00 +30°C° 0 mm 1 mps 716 mmHg 30%
    22:00 +29°C° 0 mm 1 mps 716 mmHg 32%
    23:00 +29°C° 0 mm 1 mps 716 mmHg 32%

    30 March, Thursday

    Time Temperature Precipitation Wind Pressure Humidity
    00:00 +28°C° 0 mm 1 mps 716 mmHg 31%
    01:00 +28°C° 0 mm 1 mps 716 mmHg 31%
    02:00 +27°C° 0 mm 2 mps 716 mmHg 32%
    03:00 +27°C° 0 mm 3 mps 716 mmHg 33%
    04:00 +26°C° 0 mm 3 mps 716 mmHg 33%
    05:00 +24°C° 0 mm 6 mps 716 mmHg 39%
    06:00 +23°C° 0 mm 9 mps 717 mmHg 44%
    07:00 +22°C° 0 mm 11 mps 718 mmHg 49%
    08:00 +22°C° 0 mm 12 mps 718 mmHg 46%
    09:00 +23°C° 0 mm 12 mps 719 mmHg 43%
    10:00 +24°C° 0 mm 12 mps 719 mmHg 40%
    11:00 +26°C° 0 mm 12 mps 719 mmHg 37%
    12:00 +27°C° 0 mm 11 mps 719 mmHg 35%
    13:00 +28°C° 0 mm 11 mps 718 mmHg 32%
    14:00 +28°C° 0 mm 11 mps 718 mmHg 32%
    15:00 +29°C° 0 mm 11 mps 718 mmHg 31%
    16:00 +29°C° 0 mm 10 mps 718 mmHg 30%
    17:00 +27°C° 0 mm 10 mps 718 mmHg 33%
    18:00 +26°C° 0 mm 10 mps 718 mmHg 35%
    19:00 +24°C° 0 mm 10 mps 718 mmHg 37%
    20:00 +23°C° 0 mm 11 mps 719 mmHg 39%
    21:00 +22°C° 0 mm 11 mps 719 mmHg 41%
    22:00 +21°C° 0 mm 11 mps 719 mmHg 44%
    23:00 +19°C° 0 mm 11 mps 719 mmHg 45%
    Show more